Location: Bougoura
(13.1861°N, 5.0773°W)
Time: 09:05:05
(UTC+00:00)

Okean O Rocket - Pass Details

Date: 22 January 2021
Orbit: 622 x 645 km, 98.2° (Epoch: 25 February)

Event Time Altitude Azimuth Distance (km) Brightness Sun altitude
Rises 18:44:09 0° 183° (S) 2,944 5.3 -7.2°
Reaches altitude 10° 18:46:29 10° 191° (S) 2,036 4.6 -7.7°
Maximum altitude 18:50:36 38° 259° (W) 983 3.4 -8.6°
Drops below altitude 10° 18:54:43 10° 328° (NNW) 2,033 4.4 -9.6°
Sets 18:57:03 0° 336° (NNW) 2,940 5.1 -10.1°
